Previsão horária em Judziki

Hoje, 24 Junho, Quinta-feira

Tempo Temperatura Precipitação Vento Pressão Humidade
00:00 +19°C° 0.5 mm 3 m/s 752 mmHg 97%
01:00 +18°C° 0.5 mm 3 m/s 752 mmHg 97%
02:00 +18°C° 0.5 mm 3 m/s 752 mmHg 97%
03:00 +18°C° 0.3 mm 2 m/s 752 mmHg 96%
04:00 +17°C° 0.3 mm 2 m/s 752 mmHg 96%
05:00 +17°C° 0.3 mm 2 m/s 751 mmHg 96%
06:00 +19°C° 0 mm 2 m/s 751 mmHg 92%
07:00 +20°C° 0 mm 3 m/s 751 mmHg 88%
08:00 +21°C° 0 mm 3 m/s 751 mmHg 84%
09:00 +24°C° 0 mm 2 m/s 751 mmHg 79%
10:00 +26°C° 0 mm 2 m/s 751 mmHg 75%
11:00 +27°C° 0 mm 2 m/s 751 mmHg 70%
12:00 +28°C° 0 mm 1 m/s 751 mmHg 66%
13:00 +29°C° 0 mm 1 m/s 751 mmHg 63%
14:00 +29°C° 0 mm 0 m/s 751 mmHg 59%
15:00 +29°C° 0 mm 0 m/s 750 mmHg 58%
16:00 +31°C° 0 mm 1 m/s 750 mmHg 57%
17:00 +31°C° 0 mm 1 m/s 749 mmHg 56%
18:00 +30°C° 0.2 mm 1 m/s 749 mmHg 63%
19:00 +29°C° 0.2 mm 1 m/s 748 mmHg 69%
20:00 +27°C° 0.2 mm 1 m/s 748 mmHg 76%
21:00 +25°C° 2.9 mm 2 m/s 748 mmHg 82%
22:00 +23°C° 2.9 mm 2 m/s 748 mmHg 88%
23:00 +20°C° 2.9 mm 2 m/s 749 mmHg 93%

Amanhã, 25 Junho, Sexta-feira

Tempo Temperatura Precipitação Vento Pressão Humidade
00:00 +20°C° 0.3 mm 2 m/s 748 mmHg 94%
01:00 +20°C° 0.3 mm 2 m/s 748 mmHg 94%
02:00 +19°C° 0.3 mm 2 m/s 748 mmHg 94%
03:00 +19°C° 0 mm 2 m/s 748 mmHg 94%
04:00 +19°C° 0 mm 2 m/s 748 mmHg 94%
05:00 +18°C° 0 mm 2 m/s 748 mmHg 94%
06:00 +20°C° 0 mm 2 m/s 748 mmHg 90%
07:00 +21°C° 0 mm 2 m/s 748 mmHg 85%
08:00 +24°C° 0 mm 2 m/s 747 mmHg 81%
09:00 +24°C° 0 mm 2 m/s 748 mmHg 79%
10:00 +25°C° 0 mm 2 m/s 748 mmHg 76%
11:00 +26°C° 0 mm 2 m/s 748 mmHg 74%
12:00 +26°C° 0.1 mm 3 m/s 748 mmHg 76%
13:00 +26°C° 0.1 mm 3 m/s 748 mmHg 78%
14:00 +25°C° 0.1 mm 4 m/s 748 mmHg 80%
15:00 +23°C° 0.3 mm 4 m/s 748 mmHg 82%
16:00 +22°C° 0.3 mm 4 m/s 748 mmHg 85%
17:00 +21°C° 0.3 mm 4 m/s 748 mmHg 88%
18:00 +21°C° 0 mm 4 m/s 748 mmHg 87%
19:00 +20°C° 0 mm 4 m/s 749 mmHg 87%
20:00 +19°C° 0 mm 4 m/s 749 mmHg 87%
21:00 +18°C° 0 mm 4 m/s 749 mmHg 88%
22:00 +17°C° 0 mm 3 m/s 749 mmHg 90%
23:00 +16°C° 0 mm 3 m/s 750 mmHg 92%

Depois de amanhã, 26 Junho, Sábado

Tempo Temperatura Precipitação Vento Pressão Humidade
00:00 +14°C° 0 mm 3 m/s 750 mmHg 93%
01:00 +14°C° 0 mm 3 m/s 750 mmHg 95%
02:00 +13°C° 0 mm 3 m/s 750 mmHg 97%
03:00 +14°C° 0 mm 2 m/s 751 mmHg 97%
04:00 +14°C° 0 mm 2 m/s 751 mmHg 97%
05:00 +14°C° 0 mm 2 m/s 751 mmHg 96%
06:00 +14°C° 0 mm 3 m/s 751 mmHg 89%
07:00 +17°C° 0 mm 3 m/s 751 mmHg 81%
08:00 +19°C° 0 mm 4 m/s 751 mmHg 74%
09:00 +20°C° 0 mm 4 m/s 751 mmHg 69%
10:00 +21°C° 0 mm 3 m/s 752 mmHg 64%
11:00 +22°C° 0 mm 3 m/s 752 mmHg 59%
12:00 +24°C° 0 mm 3 m/s 752 mmHg 57%
13:00 +24°C° 0 mm 3 m/s 752 mmHg 55%
14:00 +25°C° 0 mm 2 m/s 752 mmHg 53%
15:00 +25°C° 0 mm 2 m/s 752 mmHg 56%
16:00 +24°C° 0 mm 2 m/s 752 mmHg 58%
17:00 +24°C° 0 mm 2 m/s 752 mmHg 61%
18:00 +23°C° 0 mm 2 m/s 752 mmHg 66%
19:00 +21°C° 0 mm 2 m/s 752 mmHg 71%
20:00 +20°C° 0 mm 2 m/s 751 mmHg 76%
21:00 +19°C° 0 mm 2 m/s 752 mmHg 80%
22:00 +17°C° 0 mm 2 m/s 752 mmHg 83%
23:00 +16°C° 0 mm 2 m/s 752 mmHg 86%

27 Junho, Domingo

Tempo Temperatura Precipitação Vento Pressão Humidade
00:00 +15°C° 0 mm 2 m/s 752 mmHg 88%
01:00 +15°C° 0 mm 1 m/s 752 mmHg 89%
02:00 +14°C° 0 mm 1 m/s 753 mmHg 90%
03:00 +14°C° 0 mm 1 m/s 753 mmHg 91%
04:00 +14°C° 0 mm 1 m/s 753 mmHg 91%
05:00 +14°C° 0 mm 1 m/s 753 mmHg 91%
06:00 +16°C° 0 mm 1 m/s 752 mmHg 83%
07:00 +19°C° 0 mm 1 m/s 752 mmHg 76%
08:00 +21°C° 0 mm 1 m/s 752 mmHg 69%
09:00 +22°C° 0 mm 1 m/s 753 mmHg 64%
10:00 +23°C° 0 mm 2 m/s 753 mmHg 60%
11:00 +24°C° 0 mm 2 m/s 753 mmHg 55%
12:00 +25°C° 0 mm 2 m/s 752 mmHg 53%
13:00 +25°C° 0 mm 2 m/s 752 mmHg 52%
14:00 +26°C° 0 mm 2 m/s 752 mmHg 50%
15:00 +26°C° 0 mm 2 m/s 752 mmHg 52%
16:00 +25°C° 0 mm 2 m/s 752 mmHg 53%
17:00 +25°C° 0 mm 2 m/s 752 mmHg 55%
18:00 +24°C° 0 mm 2 m/s 752 mmHg 61%
19:00 +23°C° 0 mm 2 m/s 752 mmHg 67%
20:00 +21°C° 0 mm 2 m/s 752 mmHg 73%
21:00 +19°C° 0 mm 2 m/s 752 mmHg 75%
22:00 +18°C° 0 mm 2 m/s 752 mmHg 77%
23:00 +16°C° 0 mm 1 m/s 752 mmHg 80%

28 Junho, Segunda-feira

Tempo Temperatura Precipitação Vento Pressão Humidade
00:00 +16°C° 0 mm 1 m/s 752 mmHg 81%
01:00 +15°C° 0 mm 1 m/s 752 mmHg 82%
02:00 +14°C° 0 mm 0 m/s 753 mmHg 83%
03:00 +14°C° 0 mm 0 m/s 752 mmHg 82%
04:00 +15°C° 0 mm 1 m/s 752 mmHg 81%
05:00 +15°C° 0 mm 1 m/s 752 mmHg 80%
06:00 +18°C° 0 mm 1 m/s 753 mmHg 75%
07:00 +20°C° 0 mm 1 m/s 753 mmHg 69%
08:00 +22°C° 0 mm 1 m/s 753 mmHg 63%
09:00 +23°C° 0 mm 1 m/s 753 mmHg 61%
10:00 +25°C° 0 mm 2 m/s 753 mmHg 58%
11:00 +26°C° 0 mm 2 m/s 753 mmHg 55%
12:00 +26°C° 0 mm 2 m/s 753 mmHg 54%
13:00 +27°C° 0 mm 2 m/s 753 mmHg 52%
14:00 +27°C° 0 mm 3 m/s 752 mmHg 51%
15:00 +27°C° 0 mm 3 m/s 752 mmHg 52%
16:00 +27°C° 0 mm 3 m/s 752 mmHg 53%
17:00 +27°C° 0 mm 3 m/s 752 mmHg 54%
18:00 +26°C° 0 mm 2 m/s 752 mmHg 60%
19:00 +24°C° 0 mm 2 m/s 752 mmHg 66%
20:00 +23°C° 0 mm 2 m/s 752 mmHg 73%
21:00 +21°C° 0 mm 2 m/s 753 mmHg 76%
22:00 +20°C° 0 mm 1 m/s 753 mmHg 79%
23:00 +19°C° 0 mm 1 m/s 753 mmHg 82%

29 Junho, Terça-feira

Tempo Temperatura Precipitação Vento Pressão Humidade
00:00 +18°C° 0 mm 1 m/s 753 mmHg 82%
01:00 +18°C° 0 mm 1 m/s 753 mmHg 83%
02:00 +15°C° 0 mm 0 m/s 753 mmHg 83%
03:00 +15°C° 0 mm 0 m/s 753 mmHg 83%
04:00 +16°C° 0 mm 1 m/s 753 mmHg 82%
05:00 +16°C° 0 mm 1 m/s 753 mmHg 82%
06:00 +19°C° 0 mm 1 m/s 753 mmHg 76%
07:00 +21°C° 0 mm 1 m/s 753 mmHg 70%
08:00 +23°C° 0 mm 1 m/s 753 mmHg 64%
09:00 +25°C° 0 mm 1 m/s 753 mmHg 60%
10:00 +26°C° 0 mm 1 m/s 753 mmHg 56%
11:00 +27°C° 0 mm 1 m/s 753 mmHg 52%
12:00 +28°C° 0 mm 1 m/s 753 mmHg 50%
13:00 +29°C° 0 mm 1 m/s 753 mmHg 48%
14:00 +29°C° 0 mm 1 m/s 753 mmHg 46%
15:00 +29°C° 0 mm 1 m/s 753 mmHg 47%
16:00 +29°C° 0 mm 1 m/s 753 mmHg 49%
17:00 +28°C° 0 mm 1 m/s 752 mmHg 50%
18:00 +27°C° 0 mm 1 m/s 752 mmHg 56%
19:00 +26°C° 0 mm 1 m/s 752 mmHg 62%
20:00 +24°C° 0 mm 1 m/s 752 mmHg 68%
21:00 +24°C° 0 mm 1 m/s 752 mmHg 69%
22:00 +23°C° 0 mm 1 m/s 752 mmHg 70%
23:00 +22°C° 0 mm 1 m/s 752 mmHg 71%
Mostrar mais

Necessitamos do seu Consentimento

A Meteoprog e os seus Fornecedores de Serviços podem armazenar e aceder a dados pessoais como cookies, identificadores do dispositivo ou outras tecnologias semelhantes existentes no seu dispositivo e processar estes dados para personalizar conteúdos e anúncios, assim como funcionalidades nas redes sociais e análise de tráfego.

  • Armazenar e/ou aceder a informações no seu dispositivo

    Os cookies, identificadores do dispositivo ou outras informações podem ser armazenados ou acedidos no seu dispositivo, para os fins acima indicados.

  • Anúncios e conteúdos personalizados, medição de anúncios e conteúdos, dados sobre o público-alvo e desenvolvimento de produtos

    Os anúncios e os conteúdos podem ser personalizados com base num perfil. Podem ser adicionados dados adicionais para uma maior personalização dos anúncios e dos conteúdos. A eficácia dos anúncios e dos conteúdos pode ser medida. Podem ser obtidas informações sobre o público que visualizou os anúncios e os conteúdos. Estes dados podem ser usados para desenvolver ou melhorar sistemas, softwares ou a experiência do utilizador.

Ao clicar em "Eu concordo”, permitirá o uso de cookies, identificadores do dispositivo e web beacons mencionados ou outras tecnologias semelhantes. As configurações do navegador do seu dispositivo podem ser alteradas.

Para certos fins, podem ser invocados interesses legítimos ao invés de consentimento. Pode ler mais informação sobre este assunto na nossa Política de Privacidade e Cookies.